Volver al catálogo

BREEZE-M DEB

TANK

ActivoHEO
NORAD 39010·DEBRIS·🇷🇺 Russia

Lanzado Nov 20, 2012 desde Baikonur Cosmodrome

Loading…

Próximos Pases (próximas 24 horas)

TLE

ActualizadoSource: Space-Track

Época: Sep 14, 2026, 06:04 UTC

1 39010U 12065C   26257.25307132  .00002175  00000-0  50971-3 0  9992
2 39010  49.6803  65.2084 4561532 223.0814  90.5790  6.32427196309749

Sigue BREEZE-M DEB en tiempo real con AllMySat

Download on the App Store